Location: Hains Lake
(37.8540°N, 99.8578°W)
Time: 23:02:08
(UTC+00:00)

deb Explorer IX - Pass Details

Date: 23 April 2021
Orbit: 541 x 1098 km, 38.8° (Epoch: 13 May)

Event Time Altitude Azimuth Distance (km) Brightness Sun altitude
Rises 14:59:03 0° 278° (W) 2,757 ? 35.5°
Reaches altitude 10° 15:01:12 10° 279° (W) 1,904 ? 35.9°
Maximum altitude 15:05:34 84° 7° (N) 643 ? 36.8°
Drops below altitude 10° 15:10:36 10° 96° (E) 2,184 ? 37.7°
Sets 15:13:13 0° 97° (E) 3,202 ? 38.2°
